Vorticity
nan nan nan nan nan nan nan nan nan nan nan nan nan nan nan nan nan nan nan nan nan nan nan nan nan nan nan nan nan nan nan nan nan nan nan nan nan nan nan nan nan nan nan
nan 5 6 7 7 5 5 5 5 5 4 4 5 4 4 4 5 6 6 6 5 6 6 7 7 7 8 8 6 4 4 5 4 3 3 0 4 9 9 8 8 7 nan
nan 5 7 9 9 7 5 5 5 4 3 5 5 4 4 3 6 6 6 6 6 5 6 7 6 6 7 7 6 6 5 4 7 6 -3 -3 4 7 7 6 5 5 nan
nan 7 7 10 10 7 6 6 5 4 4 5 4 4 4 5 5 6 6 6 5 3 5 7 6 6 7 6 6 5 5 4 4 4 6 4 5 6 4 4 4 5 nan
nan 6 8 10 9 8 6 5 5 5 5 4 4 5 4 5 6 6 4 6 6 4 5 6 6 7 6 5 5 5 6 5 4 1 6 9 7 6 5 5 7 6 nan
nan 6 7 8 7 7 6 6 5 5 5 5 5 5 6 6 5 5 5 6 5 4 6 5 5 7 5 4 4 4 5 10 2 2 8 8 8 7 6 5 7 7 nan
nan 5 5 6 7 7 6 5 5 5 5 5 6 6 6 7 6 5 6 4 6 7 7 5 4 6 5 4 3 5 4 3 4 11 12 7 10 8 7 6 5 5 nan
nan 6 4 5 6 6 6 5 5 6 6 6 6 6 5 4 5 6 5 5 5 5 7 6 5 5 4 4 5 5 5 5 15 13 4 6 8 8 5 5 6 6 nan
nan 5 6 5 5 5 5 5 5 6 5 5 4 5 5 4 5 5 4 5 4 5 5 5 5 4 5 6 4 3 6 7 5 5 10 11 9 7 5 5 6 6 nan
nan 3 5 6 5 4 8 7 6 5 5 6 6 5 4 3 2 4 5 5 4 5 5 5 5 5 5 5 5 4 5 7 8 3 3 10 11 7 5 5 5 6 nan
nan 6 7 5 5 5 5 7 6 6 7 5 5 4 1 4 7 4 5 5 4 4 4 3 4 5 6 7 7 5 5 8 6 7 11 9 5 5 6 6 5 5 nan
nan 3 7 6 6 6 5 5 4 5 6 6 7 4 2 4 5 5 10 8 5 5 6 6 6 7 10 10 12 7 4 7 8 8 11 13 7 7 6 6 6 5 nan
nan 3 7 8 6 4 6 5 5 7 8 7 7 5 3 9 9 8 8 9 9 10 7 10 9 5 9 11 11 10 4 6 8 11 13 10 7 7 6 6 6 6 nan
nan 6 7 5 4 5 6 6 7 6 6 7 10 6 6 8 6 9 8 6 7 8 8 10 12 12 7 4 8 9 3 11 7 11 14 9 8 7 6 7 6 6 nan
nan 8 8 3 3 6 6 5 10 8 7 9 10 8 4 6 7 5 9 8 7 5 8 9 9 7 6 9 10 10 6 9 10 8 14 11 5 8 8 6 6 6 nan
nan 9 5 3 7 10 2 6 7 9 5 7 9 10 11 6 7 7 8 7 6 5 8 13 7 8 7 8 8 6 11 7 7 7 9 11 10 6 6 6 6 6 nan
nan 8 8 10 5 5 6 8 5 9 8 8 7 6 8 7 6 8 7 8 9 8 10 8 6 7 7 7 7 8 13 8 6 5 7 10 11 8 4 2 4 6 nan
nan 6 8 12 8 5 7 6 7 6 10 8 6 12 5 4 5 8 7 7 7 10 11 6 8 6 6 7 10 10 9 9 9 6 5 7 8 8 10 7 4 4 nan
nan 6 3 7 11 11 7 5 6 9 10 11 7 7 8 7 7 5 8 7 7 9 9 9 8 7 8 7 7 9 10 11 10 9 9 9 9 5 10 12 8 8 nan
nan 4 2 7 9 9 6 5 6 9 12 9 8 9 10 6 7 5 8 9 8 8 8 9 8 6 7 7 8 9 12 11 10 10 9 10 9 8 10 12 9 12 nan
nan 7 5 4 4 4 7 7 6 8 10 11 10 9 7 6 7 6 7 9 8 9 7 7 8 7 7 9 9 11 12 10 8 8 9 9 8 10 8 9 9 8 nan
nan 6 7 4 3 4 5 7 8 7 4 7 10 13 7 7 7 8 6 7 9 10 10 8 8 5 9 11 9 10 8 6 11 11 10 10 9 8 8 11 9 6 nan
nan 7 8 7 4 2 2 5 4 6 8 8 9 8 9 10 9 8 9 8 9 11 9 9 8 6 7 6 11 9 7 9 8 11 11 9 9 7 10 10 8 5 nan
nan 8 9 9 8 6 6 5 7 5 6 9 10 6 10 10 9 11 7 9 11 8 9 8 7 9 7 8 6 8 8 9 5 8 10 12 11 9 9 7 8 10 nan
nan 10 9 9 9 9 8 5 7 5 5 7 9 11 8 10 10 8 8 8 10 8 8 7 9 11 6 8 9 8 10 8 8 9 9 9 9 10 10 10 9 11 nan
nan nan nan nan nan nan nan nan nan nan nan nan nan nan nan nan nan nan nan nan nan nan nan nan nan nan nan nan nan nan nan nan nan nan nan nan nan nan nan nan nan nan nan
CAPE
833 1069 2303 2352 2703 2914 2819 2357 2234 2375 1880 1646 1916 1816 1818 2437 2310 2241 2328 2439 2427 2507 2398 2179 2348 2439 2309 2288 2393 2483 2324 2261 2378 2324 2225 1994 2133 2264 2307 1748 831 237 1797
799 919 2695 2721 3004 3215 3213 2715 2434 2324 2109 1812 2165 1642 2219 2680 2207 1558 1830 2364 2345 2806 2139 1775 1683 1990 2107 2260 2394 2208 2185 2281 2577 1860 2030 1958 1981 2290 2094 1470 335 1147 1996
772 954 1574 3078 3365 3411 3345 2706 2110 1794 1911 1749 1856 1713 2623 2331 1743 1072 1805 2234 1804 2524 1584 1797 1860 1871 1844 2144 2237 2186 2179 2283 2066 1940 1840 1105 1837 1854 1692 826 1110 1862 2132
669 770 1387 3198 3471 3591 3367 2783 2485 1791 1909 1886 2049 2361 2125 2453 1709 1197 1653 2061 1740 1744 1128 1504 1666 1809 1767 1889 1994 2076 2097 2074 1328 1065 734 682 1062 2099 1797 2120 2101 2198 2136
506 933 1929 3235 3399 3415 3134 2866 2557 2425 2070 1927 2445 2212 1803 2203 2100 1114 1893 1892 1554 1404 271 810 915 1552 1808 1976 1924 1597 1648 1260 295 80 749 550 750 2033 2122 2070 1719 1769 2151
609 1093 2405 3108 3245 3213 3086 2855 2825 2800 2106 2395 2496 2365 1969 1960 2052 1145 1851 1918 1676 1576 221 43 917 1237 1574 1636 1614 1648 1455 1143 979 12 437 1610 1182 1509 2031 2124 1969 1747 2112
1040 985 1529 2747 3000 3007 2982 2960 2915 2374 2424 2429 2452 2046 2042 1985 1843 1166 1647 1536 1194 1126 833 45 385 756 1040 1181 1171 1122 1106 1051 1489 364 1064 1401 1804 2154 2086 2039 1735 1709 2004
1034 588 1221 2338 2660 2789 2599 2488 2716 2603 2457 2520 2336 2042 1972 1984 1841 1844 1590 1743 1628 1062 746 639 551 826 638 542 612 1028 1301 1233 1106 312 1202 1292 2093 2367 1507 2043 1950 1701 2033
703 879 956 1226 1869 2121 2610 2361 2371 2220 1934 1734 2300 2032 2075 1636 1571 1378 1426 1292 1239 909 775 532 398 432 375 328 575 388 329 255 263 531 879 1212 2386 2180 1365 1922 2021 1998 2053
822 725 832 922 1492 1910 1768 1767 1558 1379 1623 2132 1972 1784 1550 1570 1206 1118 1216 1012 850 944 846 660 386 348 253 434 431 541 263 186 761 204 184 1041 2107 2042 1562 1254 1988 2059 2073
479 299 305 513 1315 1784 1750 1822 2038 1859 1900 2036 1961 1515 1501 816 446 840 256 131 191 302 693 290 434 674 684 568 659 370 291 111 723 401 415 908 1857 1643 1552 1735 1700 1885 2007
244 113 143 446 434 691 304 1531 1716 1741 1720 1721 1704 2063 481 147 279 40 57 202 195 151 317 646 322 569 1027 681 652 661 417 190 444 323 317 1028 1976 1345 1469 1666 1677 1847 1929
16 0 224 514 585 290 755 1003 728 910 1575 1329 1840 1542 834 544 771 0 5 252 571 231 157 494 526 360 517 263 553 714 518 86 458 126 259 683 1055 1011 1510 1740 1662 1572 1579
15 0 0 410 571 300 923 603 590 1011 1038 1023 1027 1240 1400 907 677 1247 596 179 314 457 367 865 208 779 233 87 979 458 775 328 74 288 270 838 916 408 957 1487 1684 1670 1569
4 6 47 720 809 394 465 415 685 1383 919 733 1210 1245 1351 1583 753 1255 1275 705 940 401 48 546 1282 908 585 1608 1003 251 176 386 532 216 135 779 1150 1619 1091 1554 1318 1479 1492
21 6 163 144 1699 715 861 1158 1659 1031 913 2240 839 1547 1589 1758 1134 638 1286 1465 1409 1056 976 656 1240 957 1078 1131 814 479 530 616 794 566 92 273 1741 1732 1592 1056 1300 1502 1573
129 128 46 387 636 595 2007 1738 1359 1994 1049 1345 388 1618 1051 1032 1066 240 525 1125 1721 1078 939 1095 1372 531 1051 1020 666 1201 903 654 863 544 443 108 956 1545 1073 1059 1190 1704 1625
493 362 440 43 218 384 820 1337 985 970 743 828 1851 1286 394 264 1128 586 847 1034 1202 1537 983 1189 1573 854 910 1012 685 1223 1694 1263 998 1025 561 516 15 102 907 1233 1278 1429 1561
891 797 766 314 359 440 1286 1123 939 1319 1576 2538 2135 1432 576 779 1585 681 730 896 865 1252 1421 1204 1556 1499 1185 606 689 687 1390 1245 1174 1309 799 490 257 0 0 599 1672 1679 1025
1040 918 879 1200 592 643 392 186 216 533 1531 1900 1711 1533 1787 733 675 1332 1368 1162 892 1271 1616 1360 1586 1945 1471 963 948 418 440 1932 1409 1453 1404 829 183 453 347 316 688 1399 1727
1164 1132 899 1027 316 163 69 67 60 482 1497 1794 1880 2204 1219 573 704 1573 1559 1231 1064 1422 1288 1559 1607 2085 1721 1360 1203 325 959 1099 1290 1185 1306 1193 1351 613 633 942 500 485 1174
1351 915 815 1039 196 51 0 0 0 200 1281 1300 598 1386 1056 1319 1047 1285 2021 1342 1083 1002 1718 1597 1937 1978 1561 1041 1112 885 222 387 829 1259 1310 1108 1082 793 657 638 702 610 565
1717 982 706 1381 11 0 0 0 0 24 841 595 630 1055 955 1646 1690 1635 1909 2024 908 1196 731 1825 1836 2167 750 1245 1594 516 477 231 607 984 1081 1340 1792 1259 1280 932 763 847 1211
2039 1614 1091 1236 182 43 2 0 6 17 579 1404 928 1336 1613 1535 1945 1847 2060 1236 990 2112 949 1566 1771 1881 1802 891 1504 2149 1444 459 647 649 943 895 1511 1391 1182 1123 760 861 980
2134 1772 1921 1371 114 279 3 14 549 683 881 518 691 1236 1622 1633 1469 1414 1395 2010 2089 1469 1669 1832 1575 1654 2147 1418 1323 1608 1783 1942 1251 642 470 1407 1312 1221 1448 1198 1039 892 697
1747 1679 1599 1565 1160 874 490 576 1019 1322 476 300 800 1042 1360 1460 1911 1332 1234 1379 1019 2331 1623 1696 1502 1849 2050 2110 1766 1934 1804 1478 938 878 1009 1106 968 1540 1456 1268 1069 919 939